This demonstration page uses our WeatherBlox Daily Observations layout. Learn more.

Left ArrowRight Arrow

41.86663, -103.66717

Hourly Observations for July 25, 2021

Temp ( °F °C ) Dew Point ( °F °C ) Humidity (%) Winds ( mph kmh ) Pressure ( in mb ) Visibility ( mi km ) Precip ( " mm )
12:53 am 00:53 Clear 66 18.9 52 11.1 61 61 E 6 9 30.00 1016 10 16 N/A
1:53 am 01:53 Clear 68 20 52 11.1 57 57 E 10 17 29.98 1015 10 16 N/A
2:53 am 02:53 Clear 66 18.9 53 11.7 63 63 ESE 5 7 29.98 1015 10 16 N/A
3:53 am 03:53 Clear 64 17.8 54 12.2 70 70 ESE 7 11 29.98 1015 10 16 N/A
4:53 am 04:53 Clear 63 17.2 55 12.8 76 76 ENE 6 9 29.98 1015 10 16 N/A
5:53 am 05:53 undefined 63 17.2 56 13.3 78 78 E 3 6 29.99 1016 10 16 N/A
6:53 am 06:53 Sunny 65 18.3 58 14.4 78 78 E 3 6 29.99 1016 9 14 N/A
7:53 am 07:53 Sunny 70 21.1 60 15.6 71 71 E 5 7 29.98 1015 10 16 N/A
8:53 am 08:53 Sunny 75 23.9 61 16.1 62 62 ESE 5 7 29.98 1015 10 16 N/A
9:53 am 09:53 Sunny 80 26.7 61 16.1 52 52 ESE 7 11 29.97 1015 10 16 N/A
10:53 am 10:53 Sunny 84 28.9 63 17.2 49 49 VRB 7 11 29.96 1014 10 16 N/A
11:53 am 11:53 Sunny 88 31.1 63 17.2 43 43 E 9 15 29.94 1014 10 16 N/A
12:53 pm 12:53 Sunny 93 33.9 57 13.9 30 30 SE 17 28 29.92 1013 10 16 N/A
1:53 pm 13:53 Sunny 94 34.4 59 15 31 31 ESE 18 30 29.90 1012 10 16 N/A
2:53 pm 14:53 Sunny 94 34.4 63 17.2 36 36 E 16 26 29.88 1012 10 16 N/A
3:53 pm 15:53 Sunny 94 34.4 60 15.6 32 32 ESE 18 30 29.87 1011 10 16 N/A
4:53 pm 16:53 Sunny 92 33.3 61 16.1 36 36 ESE 18 30 29.86 1011 10 16 N/A
5:53 pm 17:53 Sunny 90 32.2 59 15 35 35 SE 18 30 29.86 1011 10 16 N/A
6:53 pm 18:53 Sunny 87 30.6 60 15.6 40 40 SE 21 33 29.87 1011 10 16 N/A
7:53 pm 19:53 Sunny 82 27.8 61 16.1 49 49 SE 14 22 29.89 1012 10 16 N/A
8:53 pm 20:53 Clear 78 25.6 60 15.6 54 54 SE 12 19 29.91 1013 10 16 N/A
9:53 pm 21:53 Clear 75 23.9 58 14.4 55 55 SE 8 13 29.93 1014 10 16 N/A
10:53 pm 22:53 Clear 69 20.6 60 15.6 73 73 E 7 11 29.95 1014 10 16 N/A
11:53 pm 23:53 Clear 67 19.4 59 15 76 76 E 8 13 29.93 1013 10 16 N/A

Powered by AerisWeather